Captain Koulis — SV5456 — position and weather

sailwx.info

Track history (hours):
 
Tides and Currents Weather Stations Pressure Air Temp Water Temp Dewpoint Dewpoint Depression Visibility Wind Speed Wind Dir Waves Ship Positions

Captain Koulis

Last reported at 2014-Jul-23 17:33 UTC. Time now 2014-Jul-23 21:46 UTC.
Position N 36°43' E 025°16'.

Length 21 m.

Type: Passenger vessel. MMSI: 239173800.

Date/timePositionNaut miles runAvg speedWind from/ knotsBaromVisibWave heightAir tempDewpointWater temp
2014-Jul-23 17:33N 36°43' E 025°16'7 6.7
2014-Jul-23 16:33N 36°37' E 025°20'1514.3
2014-Jul-23 15:31N 36°23' E 025°26'1 0.1
2014-Jul-22 15:20N 36°24' E 025°25'1 0.1
2014-Jul-22 05:25N 36°23' E 025°25'1 0.7
2014-Jul-22 04:32N 36°24' E 025°25'0 0.0
2014-Jul-21 06:25N 36°23' E 025°25'0 0.4
2014-Jul-21 05:31N 36°23' E 025°26'2 0.2
2014-Jul-20 14:33N 36°23' E 025°23'2 1.9
2014-Jul-20 13:31N 36°24' E 025°25'1 0.0
2014-Jul-19 07:07N 36°23' E 025°26'1 1.4
2014-Jul-19 06:08N 36°25' E 025°25'0 0.1
2014-Jul-19 05:32N 36°25' E 025°25'0 0.3
2014-Jul-19 04:11N 36°24' E 025°25'1 0.1
2014-Jul-18 16:16N 36°23' E 025°26'1316.8
2014-Jul-18 15:30N 36°33' E 025°16'1616.9
2014-Jul-18 14:33N 36°48' E 025°08'1919.4
2014-Jul-18 13:33N 37°06' E 024°59'2020.4
2014-Jul-18 12:33N 37°26' E 024°57'0 0.2
2014-Jul-18 11:33N 37°27' E 024°57'0 0.0
2014-Jul-18 10:32N 37°27' E 024°57'8 2.1
2014-Jul-18 06:32N 37°18' E 024°59'2019.8
2014-Jul-18 05:32N 36°59' E 024°58'2020.3
2014-Jul-18 04:32N 36°42' E 025°12'20 1.8
2014-Jul-17 17:33N 36°24' E 025°25'1 0.1
2014-Jul-17 13:12N 36°25' E 025°25'3 3.2
2014-Jul-17 12:25N 36°27' E 025°23'1820.8
2014-Jul-17 11:33N 36°40' E 025°09'7 6.7
2014-Jul-17 10:33N 36°43' E 025°16'0 0.0
2014-Jul-17 06:15N 36°43' E 025°16'0 0.3
2014-Jul-17 05:33N 36°43' E 025°16'0 0.0
2014-Jul-17 04:33N 36°43' E 025°16'0 0.2
2014-Jul-17 03:32N 36°44' E 025°16'0 0.0
2014-Jul-16 17:30N 36°43' E 025°16'3 3.5
2014-Jul-16 16:33N 36°40' E 025°17'1616.1
2014-Jul-16 15:34N 36°25' E 025°25'1 0.1
2014-Jul-16 04:09N 36°25' E 025°25'0 0.0
2014-Jul-14 07:33N 36°24' E 025°25'1 1.1
2014-Jul-14 06:29N 36°23' E 025°26'1 1.0
2014-Jul-14 05:27N 36°24' E 025°25'0 0.3
2014-Jul-14 04:33N 36°24' E 025°25'  
Track history (hours):
 
Tides and Currents Weather Stations Pressure Air Temp Water Temp Dewpoint Dewpoint Depression Visibility Wind Speed Wind Dir Waves Ship Positions

Captain Koulis

Last reported at 2014-Jul-23 17:33 UTC. Time now 2014-Jul-23 21:46 UTC.
Position N 36°43' E 025°16'.

Length 21 m.

Type: Passenger vessel. MMSI: 239173800.

Date/timePositionNaut miles runAvg speedWind from/ knotsBaromVisibWave heightAir tempDewpointWater temp
2014-Jul-23 17:33N 36°43' E 025°16'7 6.7
2014-Jul-23 16:33N 36°37' E 025°20'1514.3
2014-Jul-23 15:31N 36°23' E 025°26'1 0.1
2014-Jul-22 15:20N 36°24' E 025°25'1 0.1
2014-Jul-22 05:25N 36°23' E 025°25'1 0.7
2014-Jul-22 04:32N 36°24' E 025°25'0 0.0
2014-Jul-21 06:25N 36°23' E 025°25'0 0.4
2014-Jul-21 05:31N 36°23' E 025°26'2 0.2
2014-Jul-20 14:33N 36°23' E 025°23'2 1.9
2014-Jul-20 13:31N 36°24' E 025°25'1 0.0
2014-Jul-19 07:07N 36°23' E 025°26'1 1.4
2014-Jul-19 06:08N 36°25' E 025°25'0 0.1
2014-Jul-19 05:32N 36°25' E 025°25'0 0.3
2014-Jul-19 04:11N 36°24' E 025°25'1 0.1
2014-Jul-18 16:16N 36°23' E 025°26'1316.8
2014-Jul-18 15:30N 36°33' E 025°16'1616.9
2014-Jul-18 14:33N 36°48' E 025°08'1919.4
2014-Jul-18 13:33N 37°06' E 024°59'2020.4
2014-Jul-18 12:33N 37°26' E 024°57'0 0.2
2014-Jul-18 11:33N 37°27' E 024°57'0 0.0
2014-Jul-18 10:32N 37°27' E 024°57'8 2.1
2014-Jul-18 06:32N 37°18' E 024°59'2019.8
2014-Jul-18 05:32N 36°59' E 024°58'2020.3
2014-Jul-18 04:32N 36°42' E 025°12'20 1.8
2014-Jul-17 17:33N 36°24' E 025°25'1 0.1
2014-Jul-17 13:12N 36°25' E 025°25'3 3.2
2014-Jul-17 12:25N 36°27' E 025°23'1820.8
2014-Jul-17 11:33N 36°40' E 025°09'7 6.7
2014-Jul-17 10:33N 36°43' E 025°16'0 0.0
2014-Jul-17 06:15N 36°43' E 025°16'0 0.3
2014-Jul-17 05:33N 36°43' E 025°16'0 0.0
2014-Jul-17 04:33N 36°43' E 025°16'0 0.2
2014-Jul-17 03:32N 36°44' E 025°16'0 0.0
2014-Jul-16 17:30N 36°43' E 025°16'3 3.5
2014-Jul-16 16:33N 36°40' E 025°17'1616.1
2014-Jul-16 15:34N 36°25' E 025°25'1 0.1
2014-Jul-16 04:09N 36°25' E 025°25'0 0.0
2014-Jul-14 07:33N 36°24' E 025°25'1 1.1
2014-Jul-14 06:29N 36°23' E 025°26'1 1.0
2014-Jul-14 05:27N 36°24' E 025°25'0 0.3
2014-Jul-14 04:33N 36°24' E 025°25'  

Dump ship's entire track history